Printer-friendly version

IAU Minor Planet Center

Minor Planet Center

MPEC 2000-S70: 2000 SE45

The following Minor Planet Electronic Circular may be linked-to from your own Web pages, but must not otherwise be redistributed electronically.


Read MPEC 2000-S69 Read MPEC 2000-S71


M.P.E.C. 2000-S70                                Issued 2000 Sept. 29, 21:05 UT

     The Minor Planet Electronic Circulars contain information on unusual
         minor planets and routine data on comets.  They are published
   on behalf of Commission 20 of the International Astronomical Union by the
          Minor Planet Center, Smithsonian Astrophysical Observatory,
                          Cambridge, MA 02138, U.S.A.

             Prepared using the Tamkin Foundation Computer Network

                              MPC@CFA.HARVARD.EDU
          URL http://cfa-www.harvard.edu/iau/mpc.html  ISSN 1523-6714

                                   2000 SE45

Observations:
     K00S45E* C2000 09 26.39973 04 38 11.52 +35 44 51.6          19.2        704
     K00S45E  C2000 09 26.41451 04 38 13.63 +35 45 00.7          19.3        704
     K00S45E  C2000 09 26.42948 04 38 15.83 +35 45 11.3          19.2        704
     K00S45E  C2000 09 26.44447 04 38 18.01 +35 45 21.9          18.8        704
     K00S45E  C2000 09 26.45901 04 38 20.13 +35 45 30.1          19.2        704
     K00S45E  C2000 09 26.94328 04 39 32.64 +35 50 48.1                      557
     K00S45E  C2000 09 26.96248 04 39 35.57 +35 51 01.5          19.1 V      557
     K00S45E  C2000 09 27.04272 04 39 47.37 +35 51 56.6          18.4 R      046
     K00S45E  C2000 09 27.04396 04 39 47.56 +35 51 56.6                      046
     K00S45E  C2000 09 27.04492 04 39 47.76 +35 51 57.3                      046
     K00S45E  C2000 09 27.04609 04 39 47.88 +35 51 58.3                      046
     K00S45E  C2000 09 27.04729 04 39 48.02 +35 51 59.0          18.6 R      046
     K00S45E  C2000 09 27.39699 04 40 40.32 +35 55 53.0          19.0        704
     K00S45E  C2000 09 27.41176 04 40 42.56 +35 56 03.3          19.2        704
     K00S45E  C2000 09 27.42651 04 40 44.70 +35 56 13.1          19.6        704
     K00S45E  C2000 09 27.44127 04 40 46.77 +35 56 22.6          19.7        704
     K00S45E  C2000 09 28.01589 04 42 13.38 +36 02 38.9          18.5 R      046
     K00S45E  C2000 09 28.01756 04 42 13.53 +36 02 39.7                      046
     K00S45E  C2000 09 28.01853 04 42 13.63 +36 02 40.3                      046
     K00S45E  C2000 09 28.01963 04 42 13.84 +36 02 40.6                      046
     K00S45E  C2000 09 28.02060 04 42 14.01 +36 02 41.4                      046
     K00S45E  C2000 09 28.46123 04 43 20.15 +36 07 34.4          18.5 R      684
     K00S45E  C2000 09 28.46313 04 43 20.46 +36 07 35.9                      684
     K00S45E  C2000 09 28.46499 04 43 20.73 +36 07 37.1                      684
     K00S45E cC2000 09 29.05295 04 44 49.65 +36 14 00.0          18.5 R      118
     K00S45E cC2000 09 29.05861 04 44 50.55 +36 14 03.3                      118
     K00S45E  C2000 09 29.48604 04 45 55.03 +36 18 41.4                      711
     K00S45E  C2000 09 29.49293 04 45 56.08 +36 18 49.5                      711
     K00S45E  C2000 09 29.49975 04 45 57.08 +36 18 54.5                      711
     K00S45E  C2000 09 29.81821 04 46 45.63 +36 22 20.2                      345
     K00S45E  C2000 09 29.82139 04 46 46.06 +36 22 22.8                      345
     K00S45E  C2000 09 29.82523 04 46 46.72 +36 22 25.0                      345
     K00S45E  C2000 09 29.82939 04 46 47.33 +36 22 27.7                      345
     K00S45E  C2000 09 29.83304 04 46 47.89 +36 22 30.3                      345

Observer details:
046 Klet.  Observers J. Ticha, M. Tichy, M. Kocer, P. Jelinek.  0.57-m f/5.2
    reflector + CCD.
118 Modra.  Observers A. Galad, S. Gajdos.  0.6-m f/5.5 reflector + CCD.
345 Sobaeksan Optical Astronomy Observatory.  Observers J.-H. Youn, S.-L. Kim.
    0.61-m reflector + CCD.
557 Ondrejov.  Observers P. Pravec, P. Kusnirak.  0.65-m f/3.6 reflector + CCD.
684 Prescott.  Observer P. G. Comba.  0.46-m f/4.5 reflector + CCD.
704 Lincoln Laboratory ETS, New Mexico.  Observers M. Blythe, F. Shelly,
    M. Bezpalko, M. Elowitz, R. Huber, L. Manguso.  Measurers J. Stuart,
    R. Sayer, J. B. Evans, H. Viggh.  1.0-m f/2.15 reflector + CCD.
711 McDonald Observatory.  Observer J. G. Ries.  0.76-m reflector + CCD.

Orbital elements:
2000 SE45
Epoch 2000 Sept. 13.0 TT = JDT 2451800.5                Spahr
M 335.22602              (2000.0)            P               Q
n   0.21642408     Peri.  168.88003     -0.37672638     -0.91848112
a   2.7474660      Node   303.14744     +0.83848398     -0.28292022
e   0.5555867      Incl.    8.26026     +0.39372814     -0.27631248
P   4.55           H   16.5           G   0.15
From 34 observations 2000 Sept. 26-29.

Ephemeris:
2000 SE45                a,e,i = 2.75, 0.56, 8                   q = 1.2210
Date    TT    R. A. (2000) Decl.     Delta      r     Elong.  Phase     V
2000 09 23    04 29.85   +35 06.7    1.056    1.672   108.5    34.7    19.2
2000 10 03    04 54.92   +36 56.3    0.928    1.605   112.7    35.1    18.8
2000 10 13    05 21.83   +38 35.5    0.810    1.541   116.6    35.4    18.4
2000 10 23    05 50.84   +39 58.3    0.703    1.480   120.3    35.5    18.0
2000 11 02    06 21.98   +40 55.8    0.608    1.422   123.6    35.5    17.6
2000 11 12    06 55.07   +41 15.2    0.525    1.370   126.7    35.4    17.2
2000 11 22    07 29.45   +40 41.2    0.453    1.323   129.6    35.1    16.8
2000 12 02    08 03.59   +38 56.9    0.392    1.284   132.5    34.5    16.4
2000 12 12    08 35.55   +35 47.7    0.344    1.253   135.6    33.4    16.1
2000 12 22    09 03.11   +31 08.1    0.307    1.232   139.3    31.4    15.7
2001 01 01    09 24.34   +25 08.2    0.281    1.222   144.0    28.2    15.4
2001 01 11    09 38.52   +18 17.7    0.268    1.223   149.7    24.0    15.2
2001 01 21    09 45.97   +11 24.7    0.268    1.234   156.1    18.9    15.1
2001 01 31    09 48.11   +05 20.8    0.281    1.256   162.2    13.9    15.0
2001 02 10    09 47.44   +00 40.9    0.308    1.288   165.9    10.7    15.2
2001 02 20    09 46.30   -02 26.8    0.348    1.328   164.9    11.2    15.5
2001 03 02    09 46.60   -04 15.5    0.401    1.375   160.1    14.2    16.0
2001 03 12    09 49.45   -05 09.5    0.467    1.428   153.8    17.9    16.6
2001 03 22    09 55.01   -05 31.5    0.547    1.486   147.1    21.3    17.1
2001 04 01    10 03.10   -05 39.3    0.640    1.548   140.5    24.2    17.6
2001 04 11    10 13.31   -05 44.9    0.746    1.612   134.1    26.5    18.1
2001 04 21    10 25.12   -05 55.0    0.863    1.679   127.8    28.2    18.6
2001 05 01    10 38.17   -06 12.8    0.992    1.747   121.8    29.4    19.0
2001 05 11    10 52.11   -06 40.0    1.131    1.816   115.9    30.0    19.4
2001 05 21    11 06.65   -07 16.2    1.279    1.885   110.1    30.3    19.7
2001 05 31    11 21.64   -08 00.8    1.436    1.954   104.5    30.2    20.0
2001 06 10    11 36.93   -08 52.7    1.600    2.023    98.9    29.7    20.3
2001 06 20    11 52.41   -09 50.8    1.769    2.092    93.4    29.0    20.6
2001 06 30    12 08.05   -10 53.8    1.942    2.160    88.0    28.1    20.9
2001 07 10    12 23.77   -12 00.6    2.119    2.227    82.5    26.9    21.1
2001 07 20    12 39.57   -13 10.1    2.296    2.294    77.1    25.6    21.3
2001 07 30    12 55.44   -14 21.3    2.474    2.359    71.6    24.1    21.5
2001 08 09    13 11.36   -15 33.3    2.650    2.424    66.1    22.5    21.6
2001 08 19    13 27.35   -16 45.2    2.823    2.487    60.6    20.8    21.8
2001 08 29    13 43.39   -17 56.4    2.990    2.549    55.0    18.9    21.9
2001 09 08    13 59.48   -19 06.0    3.152    2.610    49.4    17.0    22.0

Timothy B. Spahr             (C) Copyright 2000 MPC           M.P.E.C. 2000-S70

Read MPEC 2000-S69 Read MPEC 2000-S71


Our Web policy. Index to the CBAT/MPC/ICQ pages.


Valid HTML 4.01!